EHI
0 0 0 0 0 0 0 0 0 0 0 0 0 0 0 0 0 0 0 0 1 1 1 2 3 3 3 2 1 0 0 0 0 0 0 0 0 0 0 0 0 0 0 0
0 0 0 0 0 0 0 0 0 0 0 0 0 0 0 0 0 0 0 0 0 0 1 2 3 2 1 1 0 0 0 0 0 0 0 0 0 0 0 0 0 0 0 0
0 0 0 0 0 0 0 0 0 0 0 0 0 0 0 1 0 0 0 0 0 0 1 2 2 1 0 0 0 0 0 0 0 0 0 0 0 0 0 0 0 0 0 0
0 0 0 0 0 0 0 0 0 1 0 0 0 0 0 0 0 0 0 0 0 0 0 1 1 0 0 0 0 0 0 0 0 0 0 0 0 0 0 0 0 0 0 0
0 0 0 0 0 0 0 0 0 0 0 0 0 0 0 0 0 0 0 0 0 0 0 0 0 0 0 0 0 0 0 0 0 0 0 0 0 0 0 0 0 0 0 0
0 0 0 0 0 0 0 1 0 0 0 0 0 0 0 0 1 0 0 0 0 0 0 0 0 0 0 0 0 0 0 0 0 0 0 0 0 0 0 0 0 0 0 0
0 0 0 0 0 0 0 0 0 0 0 0 0 0 0 0 0 0 0 0 0 0 0 0 0 0 0 0 0 0 0 0 0 0 0 0 0 0 0 0 0 0 0 0
0 0 0 0 0 0 0 0 0 0 0 0 0 0 0 0 0 0 0 0 0 0 0 0 0 0 0 0 0 0 0 0 0 0 0 0 0 0 0 0 0 0 0 0
0 0 0 0 0 0 0 0 0 0 0 0 0 0 0 0 0 0 0 1 0 0 0 0 0 0 0 0 0 0 0 0 0 0 0 0 0 0 0 0 0 0 0 0
0 0 0 0 0 0 0 0 0 0 0 0 0 0 0 0 0 0 0 0 0 0 0 0 0 0 0 0 0 0 0 0 0 0 0 0 0 0 0 0 0 0 0 0
0 0 0 0 0 0 0 0 0 0 0 0 0 0 0 0 0 0 0 0 0 0 0 0 0 0 0 0 0 0 0 0 0 0 0 0 0 0 0 0 0 0 0 0
0 0 0 0 0 0 0 0 0 0 0 0 0 0 0 0 0 0 0 0 0 0 0 0 0 0 0 0 0 0 0 0 0 0 0 0 0 0 0 0 0 0 0 0
0 0 0 0 0 0 0 0 0 0 0 0 0 0 0 0 0 0 0 0 0 0 0 0 0 0 0 0 0 0 0 0 0 0 0 0 0 0 0 0 0 0 0 0
0 0 0 0 0 0 0 0 0 0 0 0 0 0 0 0 0 0 0 0 0 0 0 0 0 0 0 0 0 0 0 0 0 0 0 0 0 0 0 0 0 0 0 0
0 0 0 0 0 0 0 0 0 0 0 0 0 0 0 0 0 0 0 0 0 0 0 0 0 0 0 0 0 0 0 0 0 0 0 0 0 0 0 0 0 0 0 0
0 0 0 0 0 0 0 0 0 0 0 0 0 0 0 0 0 0 0 0 0 0 0 0 0 0 0 0 0 0 0 0 0 0 0 0 0 0 0 0 0 0 0 0
0 0 0 0 0 0 0 0 0 0 0 0 0 0 0 0 0 0 0 0 0 0 0 0 0 0 0 0 0 0 0 0 0 0 0 0 0 0 0 0 0 0 0 0
0 0 0 0 0 0 0 0 0 0 0 0 0 0 0 0 0 0 0 0 0 0 0 0 0 0 0 0 0 0 0 0 0 0 0 0 0 0 0 0 0 0 0 0
0 0 0 0 0 0 0 0 0 0 0 0 0 0 0 0 0 0 0 0 0 0 0 0 0 0 0 0 0 0 0 0 0 0 0 0 0 0 0 0 0 0 0 0
0 0 0 0 0 0 0 0 0 0 0 0 0 0 0 0 0 0 0 0 0 0 0 0 0 0 0 0 0 0 0 0 0 0 0 0 0 0 0 0 0 0 0 0
0 0 0 0 0 0 0 0 0 0 0 0 0 0 0 0 0 0 0 0 0 0 0 0 0 0 0 0 0 0 0 0 0 0 0 0 0 0 0 0 0 0 0 0
0 0 0 0 0 0 0 0 0 0 0 0 0 0 0 0 0 0 0 0 0 0 0 0 0 0 0 0 0 0 0 0 0 0 0 0 0 0 0 0 0 0 0 0
0 0 0 0 0 0 0 0 0 0 0 0 0 0 0 0 0 0 0 0 0 0 0 0 0 0 0 0 0 0 0 0 0 0 0 0 0 0 0 0 0 0 0 0
0 0 0 0 0 0 0 0 0 0 0 0 0 0 0 0 0 0 0 0 0 0 0 0 0 0 0 0 0 0 0 0 0 0 0 0 0 0 0 0 0 0 0 0
0 0 0 0 0 0 0 0 0 0 0 0 0 0 0 0 0 0 0 0 0 0 0 0 0 0 0 0 0 0 0 0 0 0 0 0 0 0 0 0 0 0 0 0
0 0 0 0 0 0 0 0 0 0 0 0 0 0 0 0 0 0 0 0 0 0 0 0 0 0 0 0 0 0 0 0 0 0 0 0 0 0 0 0 0 0 0 0
0 0 0 0 0 0 0 0 0 0 0 0 0 0 0 0 0 0 0 0 0 0 0 0 0 0 0 0 0 0 0 0 0 0 0 0 0 0 0 0 0 0 0 0
Wind_Speed
4 4 3 4 5 4 4 6 7 7 6 7 8 8 7 6 6 8 10 11 13 13 11 10 10 10 10 10 9 9 9 9 9 8 7 7 6 6 6 6 7 6 5 5
4 5 3 5 6 5 5 3 4 3 4 5 2 1 2 4 6 8 10 13 13 13 12 13 13 12 11 10 10 9 10 10 8 7 7 7 7 7 6 6 6 5 6 6
4 5 2 4 5 2 2 3 0 2 4 1 2 2 4 4 5 7 9 11 13 14 15 15 14 14 13 12 9 9 10 9 8 8 8 8 8 7 7 7 6 6 6 6
2 2 3 6 3 4 7 6 6 4 4 3 1 1 1 2 4 6 7 9 10 11 11 11 11 11 11 10 10 10 10 9 9 9 9 8 7 7 7 6 6 6 6 6
2 2 5 3 3 1 4 3 4 3 5 5 4 5 5 5 1 4 6 7 8 10 9 9 10 10 9 9 9 9 10 10 10 9 9 8 8 8 7 6 6 6 5 7
3 2 4 5 5 2 6 2 4 2 4 5 6 4 4 8 6 3 1 2 3 4 5 6 8 8 9 9 9 11 11 10 9 9 9 9 9 8 6 6 7 6 7 7
3 3 6 3 4 3 3 5 3 1 2 4 2 1 4 7 6 5 3 3 1 2 3 5 5 7 9 9 11 11 8 7 8 8 9 9 8 6 6 6 6 6 7 7
3 2 6 2 1 3 5 4 3 2 3 4 2 2 4 6 7 8 8 8 5 3 1 1 2 6 7 8 8 5 6 7 7 7 7 6 6 6 6 6 6 7 7 7
6 7 5 3 4 3 3 3 3 3 2 4 5 5 5 6 7 8 9 9 7 5 5 5 4 1 3 4 2 3 4 5 5 5 5 5 6 6 5 5 6 6 6 7
2 4 4 3 2 2 2 2 3 4 5 7 7 6 5 6 7 8 8 8 7 8 8 6 6 4 2 3 2 1 2 2 2 3 4 4 4 5 5 5 6 7 7 8
2 2 1 4 3 4 4 3 5 6 7 7 8 8 7 6 7 7 7 7 7 7 7 7 6 7 6 5 4 3 2 2 2 3 3 4 4 5 7 7 8 9 8 8
7 9 6 5 4 5 6 6 7 9 9 8 8 8 7 6 5 5 6 6 7 8 8 7 7 7 7 5 4 4 3 3 3 3 3 4 5 7 10 12 15 16 17 14
6 7 5 5 5 6 7 8 9 9 9 8 7 7 6 5 4 5 6 6 6 6 6 6 7 7 6 5 4 3 3 3 3 3 4 4 5 6 8 9 11 14 16 17
11 11 9 7 7 7 10 10 10 10 8 7 6 6 6 5 5 6 5 4 4 5 5 5 5 5 5 5 5 4 4 5 4 4 4 5 5 6 6 7 7 7 10 14
8 9 9 9 10 10 9 9 10 8 7 6 6 6 6 5 5 4 3 4 4 5 4 4 4 4 4 4 4 4 4 4 4 4 5 5 5 5 6 7 7 7 7 7
10 11 12 13 11 9 9 9 8 6 5 5 5 4 4 3 3 3 3 3 3 3 3 2 3 4 3 3 3 3 4 8 7 5 5 5 6 6 6 6 6 6 6 6
11 8 9 9 8 8 7 6 6 5 4 4 3 2 3 3 2 2 2 2 1 2 3 3 4 4 3 2 2 3 4 6 9 7 5 6 6 6 6 6 6 6 6 7
10 7 7 8 7 6 6 5 5 4 3 2 2 2 2 0 1 3 4 3 3 4 4 4 4 3 2 2 3 3 4 4 5 5 6 6 6 6 6 6 6 7 6 6
9 8 7 7 6 6 5 4 4 3 2 1 1 0 1 2 3 4 3 3 3 5 6 5 4 3 3 4 5 3 4 5 5 5 5 7 7 5 5 5 6 6 6 6
8 7 8 8 7 6 4 3 3 2 2 1 1 1 3 4 4 4 3 3 4 5 4 3 3 3 3 5 6 3 4 5 5 5 5 5 5 6 6 6 6 6 6 5
7 7 7 6 5 4 3 2 2 3 3 2 2 3 4 5 5 4 3 4 5 4 3 3 2 2 4 5 5 3 4 4 5 5 5 5 5 6 6 6 6 6 6 5
5 5 4 4 3 2 3 3 3 3 3 3 4 4 4 5 5 4 2 2 3 2 1 1 2 4 6 5 3 4 4 5 5 5 5 5 6 6 6 7 6 6 5 5
3 2 2 1 1 2 4 4 4 4 4 4 4 4 3 3 2 1 2 2 1 1 1 1 4 7 7 4 3 4 5 5 5 5 6 6 6 6 6 7 6 6 6 6
1 2 3 4 3 3 4 5 4 3 3 3 3 2 1 1 2 1 1 1 2 2 2 4 8 9 7 4 4 5 5 5 6 6 6 6 6 6 6 6 6 6 6 7
3 4 4 4 4 3 4 4 3 3 3 3 3 3 2 0 0 0 1 2 5 5 3 5 8 8 5 4 5 5 5 5 6 6 6 7 7 6 6 6 7 6 6 6
3 3 3 2 1 1 1 1 2 2 2 2 2 2 2 2 2 2 3 4 6 5 4 3 4 5 4 5 6 6 6 7 7 7 7 7 7 7 7 7 9 7 6 6
4 3 2 2 2 2 2 2 1 2 1 1 1 2 2 2 2 3 4 3 4 4 4 4 4 5 5 5 6 6 6 6 6 7 7 7 7 7 7 8 6 6 6 7
Wind_Direction
226 236 202 240 251 228 208 197 200 242 248 238 222 215 216 199 185 173 172 173 174 176 179 178 178 181 181 184 184 180 176 183 196 200 199 199 202 206 209 211 216 217 222 229
314 300 296 279 267 252 245 249 242 251 266 262 237 134 141 160 162 169 177 179 179 178 178 181 184 185 185 188 186 178 182 192 194 193 196 200 204 208 211 217 221 217 219 225
280 298 348 291 268 234 91 21 50 192 252 333 60 129 170 177 166 173 182 183 183 184 185 187 188 185 187 190 182 180 187 191 190 191 198 204 206 206 212 217 217 219 224 224
217 11 251 251 297 102 97 46 21 37 14 18 134 200 252 167 174 185 189 186 190 192 195 195 190 187 186 180 179 185 190 193 193 193 201 205 206 211 215 211 211 218 224 227
140 202 263 282 319 343 131 66 353 23 18 10 14 42 10 351 324 188 188 187 191 194 192 191 192 189 178 183 185 189 196 199 199 196 200 204 210 216 213 209 217 219 221 225
140 169 235 251 298 310 107 65 311 31 37 22 35 50 318 329 338 341 299 213 192 183 176 191 200 179 175 188 190 201 204 203 200 198 201 207 213 213 210 208 219 223 231 230
167 198 250 258 307 19 128 213 235 148 85 61 59 183 282 324 343 354 15 22 61 129 169 206 191 168 185 193 207 212 202 198 201 203 208 211 212 211 210 214 222 228 238 241
151 186 244 270 359 163 198 192 193 175 121 104 90 27 18 22 20 23 29 27 31 48 12 332 152 163 184 209 220 202 189 198 209 212 214 212 212 220 216 215 226 236 242 254
178 208 233 203 200 208 152 170 188 170 149 109 93 68 51 42 32 31 32 29 26 39 33 24 26 115 202 241 213 188 200 214 220 218 217 212 209 219 223 221 228 240 239 249
159 244 242 231 208 176 169 165 136 121 110 107 108 102 80 60 45 36 31 28 28 41 40 26 20 31 21 14 49 122 209 234 238 233 238 234 226 222 226 232 236 242 243 247
165 229 260 275 219 176 151 119 98 86 89 102 100 86 75 60 46 38 34 31 36 40 37 25 25 28 23 35 52 44 8 331 307 280 264 260 254 244 241 240 236 236 241 239
196 195 178 206 192 147 123 116 110 100 87 79 87 85 74 62 52 47 41 37 40 40 38 28 29 29 21 26 46 46 12 342 317 300 289 280 277 280 263 255 258 249 246 243
144 138 126 105 105 117 114 109 104 98 94 85 76 79 76 65 52 48 44 44 47 46 40 34 34 26 11 12 30 33 357 325 311 305 297 291 284 280 287 287 273 264 257 250
118 110 97 100 106 108 109 105 97 90 86 87 80 73 69 61 50 45 37 38 48 49 39 34 34 14 354 6 18 7 346 329 320 304 297 293 290 286 282 283 289 287 276 260
93 104 117 108 95 94 97 96 89 82 77 70 70 71 70 68 59 41 27 34 41 34 20 18 16 343 335 0 9 353 339 322 314 304 299 294 292 292 290 286 282 282 288 285
97 93 97 96 96 94 92 92 91 86 83 78 72 71 75 83 74 44 26 33 36 2 332 337 318 300 313 343 347 332 319 317 321 312 306 304 301 298 296 293 291 287 282 277
97 93 95 95 94 91 90 95 98 94 86 82 80 79 75 69 48 3 328 322 316 294 285 283 276 283 302 320 326 310 307 310 314 314 305 300 299 296 293 291 290 292 286 280
98 108 112 110 103 91 81 81 82 80 86 84 80 70 57 32 273 275 279 292 312 312 295 282 272 281 294 303 306 296 298 298 300 299 299 300 301 297 295 293 295 297 295 291
108 104 98 94 94 89 81 76 75 74 68 64 62 320 265 266 265 270 280 296 298 294 287 287 295 297 288 292 306 291 297 301 302 300 300 307 311 310 309 306 303 301 294 289
82 80 77 72 71 75 71 61 50 24 344 325 329 315 300 288 282 280 281 276 262 254 263 283 305 307 302 301 311 297 299 302 303 305 306 307 308 310 310 310 307 304 303 298
72 70 72 71 64 59 51 33 12 332 315 302 270 266 267 276 283 286 290 290 288 291 300 323 333 321 313 312 312 309 311 313 313 312 311 310 309 311 311 311 312 310 311 313
66 65 64 62 49 11 336 327 313 301 299 290 284 281 286 293 300 310 295 251 267 305 346 345 331 332 335 331 326 326 324 325 323 319 318 317 316 315 316 318 317 316 317 321
60 49 35 10 319 294 307 310 303 291 282 281 283 286 287 289 284 256 284 287 284 13 31 352 350 354 353 351 345 341 339 340 336 330 327 323 322 321 321 320 321 322 325 327
336 312 296 290 300 310 303 296 297 297 294 293 294 297 297 337 335 313 226 318 34 48 43 20 17 16 12 5 357 352 348 343 338 333 330 328 326 325 324 324 324 325 329 333
271 272 277 290 297 285 276 289 319 341 354 357 355 358 360 28 144 337 45 39 50 56 42 29 29 23 19 12 5 356 350 347 344 339 334 332 331 331 330 331 333 334 337 340
288 282 283 282 263 269 312 15 17 356 358 358 339 339 356 17 41 49 60 65 63 56 41 23 17 17 18 16 9 1 356 349 347 346 340 338 338 340 339 341 343 346 347 354
345 348 357 2 356 14 35 42 26 358 346 340 323 333 6 29 49 61 66 64 58 48 37 28 26 22 20 17 10 3 357 353 350 347 345 345 347 346 346 347 349 352 357 2